TimeMST,TemperatureF,Dew PointF,Humidity,Sea Level PressureIn,VisibilityMPH,Wind Direction,Wind SpeedMPH,Gust SpeedMPH,PrecipitationIn,Events,Conditions,WindDirDegrees,DateUTC
12:53 AM,93.0,55.9,29,29.68,10.0,WNW,3.5,-,N/A,,Clear,300,2013-07-05 07:53:00
1:53 AM,91.9,55.0,29,29.68,10.0,WNW,3.5,-,N/A,,Clear,300,2013-07-05 08:53:00
2:53 AM,91.0,55.0,29,29.67,10.0,Calm,Calm,-,N/A,,Clear,0,2013-07-05 09:53:00
3:53 AM,91.0,55.0,29,29.67,10.0,WNW,3.5,-,N/A,,Clear,300,2013-07-05 10:53:00
4:53 AM,90.0,55.9,31,29.69,10.0,Calm,Calm,-,N/A,,Clear,0,2013-07-05 11:53:00
5:53 AM,90.0,57.0,33,29.71,10.0,Calm,Calm,-,N/A,,Clear,0,2013-07-05 12:53:00
6:53 AM,89.1,57.0,34,29.73,10.0,Calm,Calm,-,N/A,,Clear,0,2013-07-05 13:53:00
7:53 AM,90.0,55.9,31,29.75,10.0,Calm,Calm,-,N/A,,Clear,0,2013-07-05 14:53:00
8:53 AM,89.1,60.1,38,29.78,10.0,Calm,Calm,-,N/A,,Clear,0,2013-07-05 15:53:00
9:53 AM,89.1,60.1,38,29.78,10.0,SSE,4.6,-,N/A,,Partly Cloudy,160,2013-07-05 16:53:00
10:53 AM,91.0,59.0,34,29.78,10.0,Variable,3.5,-,0.00,,Clear,0,2013-07-05 17:53:00
11:53 AM,95.0,55.9,27,29.77,10.0,Calm,Calm,-,N/A,,Clear,0,2013-07-05 18:53:00
12:53 PM,97.0,55.9,25,29.74,10.0,SSE,4.6,-,N/A,,Clear,150,2013-07-05 19:53:00
1:53 PM,98.1,55.0,24,29.70,10.0,SW,4.6,-,N/A,,Clear,220,2013-07-05 20:53:00
2:53 PM,100.9,52.0,19,29.66,10.0,SW,5.8,-,N/A,,Clear,230,2013-07-05 21:53:00
3:53 PM,102.9,51.1,18,29.64,10.0,WSW,8.1,-,N/A,,Clear,250,2013-07-05 22:53:00
4:53 PM,102.0,53.1,19,29.64,10.0,WSW,6.9,-,N/A,,Clear,240,2013-07-05 23:53:00
5:53 PM,102.0,53.1,19,29.61,10.0,Variable,4.6,-,N/A,,Clear,0,2013-07-06 00:53:00
6:53 PM,100.9,53.1,20,29.62,10.0,West,5.8,-,N/A,,Clear,280,2013-07-06 01:53:00
7:53 PM,100.0,53.1,21,29.62,10.0,SSW,3.5,-,N/A,,Clear,210,2013-07-06 02:53:00
8:53 PM,93.9,62.1,35,29.64,10.0,SE,6.9,-,N/A,,Clear,140,2013-07-06 03:53:00
9:53 PM,93.0,62.1,36,29.69,10.0,SSE,4.6,-,N/A,,Clear,160,2013-07-06 04:53:00
10:53 PM,91.9,63.0,38,29.71,10.0,SE,4.6,-,N/A,,Clear,140,2013-07-06 05:53:00
11:53 PM,91.0,63.0,39,29.70,10.0,ESE,3.5,-,N/A,,Clear,120,2013-07-06 06:53:00